Retour au catalogue

NATO 3B

ActifMilitaireGEO
NORAD 9785·PAYLOAD· XX

Lancé Jan 28, 1977 depuis Cape Canaveral Space Force Station

Loading…

TLE

FraisSource: Space-Track

Époque: Sep 14, 2026, 12:48 UTC

1 09785U 77005A   26257.53399385 -.00000151  00000-0  00000-0 0  9993
2 09785   8.0318 310.7771 0039747  51.5206 343.3615  0.95270211117524

Suivez NATO 3B en temps réel avec AllMySat

Download on the App Store